contact:dominique.lefevre@mio.osupytheas.fr, maurice.libes@osupytheas.fr, didier.mallarino@osupytheas.fr
Project:EMSO http://www.emso-fr.org/EMSO-France
Depth: 2436.0 m
Title:EMSO Ligure Ouest : Data MII capteur MICROCAT
DateTime_Computer,Latitude,Longitude,Temperature,Conductivity,Pressure,DateTime_Instrument
DateTime_Computer,Latitude,Longitude,degC,S m-1,dbar,DateTime_Instrument
2020-10-04T00:01:48Z,42.805,6.029,13.2996,4.60039,2470.124,2020-10-04T02:02:41Z
2020-10-04T00:04:51Z,42.805,6.029,13.3019,4.60036,2470.11,2020-10-04T02:05:44Z
2020-10-04T00:07:54Z,42.805,6.029,13.2991,4.60047,2470.063,2020-10-04T02:08:47Z
2020-10-04T00:10:57Z,42.805,6.029,13.3003,4.60039,2470.087,2020-10-04T02:11:50Z
2020-10-04T00:14:00Z,42.805,6.029,13.2999,4.60031,2470.1,2020-10-04T02:14:54Z
2020-10-04T00:17:04Z,42.805,6.029,13.3001,4.60039,2470.077,2020-10-04T02:17:57Z
2020-10-04T00:20:07Z,42.805,6.029,13.3017,4.60044,2470.063,2020-10-04T02:21:00Z
2020-10-04T00:23:10Z,42.805,6.029,13.3029,4.60051,2470.077,2020-10-04T02:24:03Z
2020-10-04T00:26:13Z,42.805,6.029,13.3033,4.60046,2470.063,2020-10-04T02:27:06Z
2020-10-04T00:29:16Z,42.805,6.029,13.3024,4.60052,2470.063,2020-10-04T02:30:09Z
2020-10-04T00:32:19Z,42.805,6.029,13.3016,4.60019,2470.124,2020-10-04T02:33:12Z
2020-10-04T00:35:22Z,42.805,6.029,13.3006,4.60011,2470.063,2020-10-04T02:36:15Z
2020-10-04T00:38:25Z,42.805,6.029,13.2993,4.60007,2470.063,2020-10-04T02:39:18Z
2020-10-04T00:41:28Z,42.805,6.029,13.3000,4.60014,2470.077,2020-10-04T02:42:22Z
2020-10-04T00:44:32Z,42.805,6.029,13.2995,4.60023,2470.04,2020-10-04T02:45:25Z
2020-10-04T00:47:35Z,42.805,6.029,13.2991,4.60007,2470.087,2020-10-04T02:48:28Z
2020-10-04T00:50:38Z,42.805,6.029,13.2998,4.60006,2470.077,2020-10-04T02:51:31Z
2020-10-04T00:53:41Z,42.805,6.029,13.2987,4.60004,2470.053,2020-10-04T02:54:34Z
2020-10-04T00:56:44Z,42.805,6.029,13.2992,4.59997,2470.077,2020-10-04T02:57:37Z
2020-10-04T00:59:47Z,42.805,6.029,13.2986,4.60000,2470.077,2020-10-04T03:00:40Z
2020-10-04T01:02:50Z,42.805,6.029,13.3000,4.60018,2470.077,2020-10-04T03:03:43Z
2020-10-04T01:05:53Z,42.805,6.029,13.3000,4.60005,2470.04,2020-10-04T03:06:47Z
2020-10-04T01:08:57Z,42.805,6.029,13.2995,4.60019,2470.04,2020-10-04T03:09:50Z
2020-10-04T01:12:00Z,42.805,6.029,13.2995,4.59992,2470.063,2020-10-04T03:12:53Z
2020-10-04T01:15:03Z,42.805,6.029,13.2987,4.60017,2470.077,2020-10-04T03:15:56Z
2020-10-04T01:18:06Z,42.805,6.029,13.2994,4.59992,2470.03,2020-10-04T03:18:59Z
2020-10-04T01:21:09Z,42.805,6.029,13.2996,4.59996,2470.017,2020-10-04T03:22:02Z
2020-10-04T01:24:12Z,42.805,6.029,13.2997,4.60001,2470.03,2020-10-04T03:25:05Z
2020-10-04T01:27:15Z,42.805,6.029,13.2991,4.60014,2470.04,2020-10-04T03:28:08Z
2020-10-04T01:30:18Z,42.805,6.029,13.2981,4.60010,2470.063,2020-10-04T03:31:11Z
2020-10-04T01:33:21Z,42.805,6.029,13.2999,4.60001,2470.053,2020-10-04T03:34:15Z
2020-10-04T01:36:25Z,42.805,6.029,13.2990,4.60001,2470.04,2020-10-04T03:37:18Z
2020-10-04T01:39:28Z,42.805,6.029,13.2995,4.59999,2470.063,2020-10-04T03:40:21Z
2020-10-04T01:42:31Z,42.805,6.029,13.3014,4.59998,2470.053,2020-10-04T03:43:24Z
2020-10-04T01:45:34Z,42.805,6.029,13.2993,4.59995,2470.063,2020-10-04T03:46:27Z
2020-10-04T01:48:37Z,42.805,6.029,13.2999,4.59999,2470.053,2020-10-04T03:49:30Z
2020-10-04T01:51:40Z,42.805,6.029,13.3005,4.60000,2470.053,2020-10-04T03:52:33Z
2020-10-04T01:54:43Z,42.805,6.029,13.2996,4.59998,2470.03,2020-10-04T03:55:36Z
2020-10-04T01:57:46Z,42.805,6.029,13.3013,4.60007,2470.03,2020-10-04T03:58:40Z
2020-10-04T02:00:50Z,42.805,6.029,13.2999,4.59991,2470.03,2020-10-04T04:01:43Z
2020-10-04T02:03:53Z,42.805,6.029,13.2999,4.59988,2470.053,2020-10-04T04:04:46Z
2020-10-04T02:06:56Z,42.805,6.029,13.3005,4.59995,2470.03,2020-10-04T04:07:49Z
2020-10-04T02:09:59Z,42.805,6.029,13.3000,4.60001,2470.053,2020-10-04T04:10:52Z
2020-10-04T02:13:02Z,42.805,6.029,13.3004,4.59997,2470.04,2020-10-04T04:13:55Z
2020-10-04T02:16:05Z,42.805,6.029,13.2998,4.59994,2470.053,2020-10-04T04:16:58Z
2020-10-04T02:19:08Z,42.805,6.029,13.3004,4.60004,2470.04,2020-10-04T04:20:01Z
2020-10-04T02:22:11Z,42.805,6.029,13.3001,4.59994,2470.053,2020-10-04T04:23:05Z
2020-10-04T02:25:14Z,42.805,6.029,13.3005,4.60001,2470.077,2020-10-04T04:26:08Z
2020-10-04T02:28:18Z,42.805,6.029,13.3006,4.60000,2470.077,2020-10-04T04:29:11Z
2020-10-04T02:31:21Z,42.805,6.029,13.3011,4.60001,2470.053,2020-10-04T04:32:14Z
2020-10-04T02:34:24Z,42.805,6.029,13.2999,4.60001,2470.053,2020-10-04T04:35:17Z
2020-10-04T02:37:27Z,42.805,6.029,13.3008,4.60000,2470.04,2020-10-04T04:38:20Z
2020-10-04T02:40:30Z,42.805,6.029,13.2994,4.59994,2470.04,2020-10-04T04:41:23Z
2020-10-04T02:43:33Z,42.805,6.029,13.3008,4.59995,2470.017,2020-10-04T04:44:26Z
2020-10-04T02:46:36Z,42.805,6.029,13.3000,4.59999,2470.017,2020-10-04T04:47:29Z
2020-10-04T02:49:39Z,42.805,6.029,13.2996,4.60010,2470.063,2020-10-04T04:50:33Z
2020-10-04T02:52:43Z,42.805,6.029,13.3011,4.60001,2469.993,2020-10-04T04:53:36Z
2020-10-04T02:55:46Z,42.805,6.029,13.2999,4.59996,2470.017,2020-10-04T04:56:39Z
2020-10-04T02:58:49Z,42.805,6.029,13.3002,4.59991,2470.053,2020-10-04T04:59:42Z
2020-10-04T03:01:52Z,42.805,6.029,13.3000,4.60005,2470.053,2020-10-04T05:02:45Z
2020-10-04T03:04:55Z,42.805,6.029,13.3003,4.59997,2470.04,2020-10-04T05:05:48Z
2020-10-04T03:07:58Z,42.805,6.029,13.2993,4.59995,2470.007,2020-10-04T05:08:51Z
2020-10-04T03:11:01Z,42.805,6.029,13.3000,4.59996,2470.007,2020-10-04T05:11:54Z
2020-10-04T03:14:04Z,42.805,6.029,13.3000,4.59995,2470.053,2020-10-04T05:14:58Z
2020-10-04T03:17:07Z,42.805,6.029,13.2996,4.59997,2470.053,2020-10-04T05:18:01Z
2020-10-04T03:20:11Z,42.805,6.029,13.3008,4.59996,2470.077,2020-10-04T05:21:04Z
2020-10-04T03:23:14Z,42.805,6.029,13.2996,4.59994,2470.017,2020-10-04T05:24:07Z
2020-10-04T03:26:17Z,42.805,6.029,13.2992,4.59994,2470.03,2020-10-04T05:27:10Z
2020-10-04T03:29:20Z,42.805,6.029,13.2991,4.59994,2470.063,2020-10-04T05:30:13Z
2020-10-04T03:32:23Z,42.805,6.029,13.2991,4.59992,2470.053,2020-10-04T05:33:16Z
2020-10-04T03:35:26Z,42.805,6.029,13.2998,4.59997,2470.017,2020-10-04T05:36:19Z
2020-10-04T03:38:29Z,42.805,6.029,13.2991,4.60003,2470.053,2020-10-04T05:39:22Z
2020-10-04T03:41:32Z,42.805,6.029,13.2993,4.59994,2470.04,2020-10-04T05:42:26Z
2020-10-04T03:44:36Z,42.805,6.029,13.2999,4.60006,2470.03,2020-10-04T05:45:29Z
2020-10-04T03:47:39Z,42.805,6.029,13.3007,4.60027,2470.053,2020-10-04T05:48:32Z
2020-10-04T03:50:42Z,42.805,6.029,13.3024,4.60011,2470.063,2020-10-04T05:51:35Z
2020-10-04T03:53:45Z,42.805,6.029,13.3006,4.60003,2470.063,2020-10-04T05:54:38Z
2020-10-04T03:56:48Z,42.805,6.029,13.3009,4.60007,2470.063,2020-10-04T05:57:41Z
2020-10-04T03:59:51Z,42.805,6.029,13.2998,4.60009,2470.017,2020-10-04T06:00:44Z
2020-10-04T04:02:54Z,42.805,6.029,13.3005,4.60033,2470.053,2020-10-04T06:03:47Z
2020-10-04T04:05:57Z,42.805,6.029,13.2996,4.60009,2470.017,2020-10-04T06:06:51Z
2020-10-04T04:09:00Z,42.805,6.029,13.2994,4.60000,2470.053,2020-10-04T06:09:54Z
2020-10-04T04:12:04Z,42.805,6.029,13.3011,4.60006,2470.03,2020-10-04T06:12:57Z
2020-10-04T04:15:07Z,42.805,6.029,13.3005,4.59999,2470.063,2020-10-04T06:16:00Z
2020-10-04T04:18:10Z,42.805,6.029,13.3021,4.59999,2470.017,2020-10-04T06:19:03Z
2020-10-04T04:21:13Z,42.805,6.029,13.2995,4.59998,2470.04,2020-10-04T06:22:06Z
2020-10-04T04:24:16Z,42.805,6.029,13.3000,4.59995,2470.063,2020-10-04T06:25:09Z
2020-10-04T04:27:19Z,42.805,6.029,13.2993,4.60009,2470.04,2020-10-04T06:28:12Z
2020-10-04T04:30:22Z,42.805,6.029,13.2983,4.60009,2470.053,2020-10-04T06:31:15Z
2020-10-04T04:33:25Z,42.805,6.029,13.2982,4.60007,2470.04,2020-10-04T06:34:19Z
2020-10-04T04:36:29Z,42.805,6.029,13.3025,4.59996,2470.063,2020-10-04T06:37:22Z
2020-10-04T04:39:32Z,42.805,6.029,13.2993,4.60002,2470.1,2020-10-04T06:40:25Z
2020-10-04T04:42:35Z,42.805,6.029,13.2984,4.60021,2470.077,2020-10-04T06:43:28Z
2020-10-04T04:45:38Z,42.805,6.029,13.3014,4.60001,2470.1,2020-10-04T06:46:31Z
2020-10-04T04:48:41Z,42.805,6.029,13.2975,4.60007,2470.04,2020-10-04T06:49:34Z
2020-10-04T04:51:44Z,42.805,6.029,13.2976,4.60002,2470.04,2020-10-04T06:52:37Z
2020-10-04T04:54:47Z,42.805,6.029,13.3010,4.59990,2470.053,2020-10-04T06:55:40Z
2020-10-04T04:57:50Z,42.805,6.029,13.2993,4.60008,2470.063,2020-10-04T06:58:44Z
2020-10-04T05:00:53Z,42.805,6.029,13.2974,4.60004,2470.063,2020-10-04T07:01:47Z
2020-10-04T05:03:57Z,42.805,6.029,13.2973,4.59995,2470.053,2020-10-04T07:04:50Z
2020-10-04T05:07:00Z,42.805,6.029,13.2974,4.59985,2470.1,2020-10-04T07:07:53Z
2020-10-04T05:10:03Z,42.805,6.029,13.2971,4.59983,2470.063,2020-10-04T07:10:56Z
2020-10-04T05:13:06Z,42.805,6.029,13.2971,4.59989,2470.1,2020-10-04T07:13:59Z
2020-10-04T05:16:09Z,42.805,6.029,13.2973,4.59983,2470.1,2020-10-04T07:17:02Z
2020-10-04T05:19:12Z,42.805,6.029,13.2974,4.59983,2470.087,2020-10-04T07:20:05Z
2020-10-04T05:22:15Z,42.805,6.029,13.2976,4.59988,2470.124,2020-10-04T07:23:08Z
2020-10-04T05:25:18Z,42.805,6.029,13.2974,4.59992,2470.11,2020-10-04T07:26:12Z
2020-10-04T05:28:22Z,42.805,6.029,13.2974,4.59991,2470.087,2020-10-04T07:29:15Z
2020-10-04T05:31:25Z,42.805,6.029,13.2969,4.59985,2470.087,2020-10-04T07:32:18Z
2020-10-04T05:34:28Z,42.805,6.029,13.2973,4.59984,2470.147,2020-10-04T07:35:21Z
2020-10-04T05:37:31Z,42.805,6.029,13.2976,4.59981,2470.124,2020-10-04T07:38:24Z
2020-10-04T05:40:34Z,42.805,6.029,13.2973,4.59985,2470.133,2020-10-04T07:41:27Z
2020-10-04T05:43:37Z,42.805,6.029,13.2976,4.59984,2470.147,2020-10-04T07:44:30Z
2020-10-04T05:46:40Z,42.805,6.029,13.2975,4.59981,2470.119,2020-10-04T07:47:33Z
2020-10-04T05:49:43Z,42.805,6.029,13.2976,4.59981,2470.133,2020-10-04T07:50:37Z
2020-10-04T05:52:46Z,42.805,6.029,13.2976,4.59981,2470.147,2020-10-04T07:53:40Z
2020-10-04T05:55:50Z,42.805,6.029,13.2974,4.59987,2470.147,2020-10-04T07:56:43Z
2020-10-04T05:58:53Z,42.805,6.029,13.2973,4.59981,2470.171,2020-10-04T07:59:46Z
2020-10-04T06:01:56Z,42.805,6.029,13.2970,4.59979,2470.133,2020-10-04T08:02:49Z
2020-10-04T06:04:59Z,42.805,6.029,13.2972,4.59979,2470.156,2020-10-04T08:05:52Z
2020-10-04T06:08:02Z,42.805,6.029,13.2976,4.59984,2470.156,2020-10-04T08:08:55Z
2020-10-04T06:11:05Z,42.805,6.029,13.2975,4.59979,2470.171,2020-10-04T08:11:58Z
2020-10-04T06:14:08Z,42.805,6.029,13.2975,4.59978,2470.133,2020-10-04T08:15:01Z
2020-10-04T06:17:11Z,42.805,6.029,13.2972,4.59978,2470.171,2020-10-04T08:18:05Z
2020-10-04T06:20:15Z,42.805,6.029,13.2976,4.59978,2470.156,2020-10-04T08:21:08Z
2020-10-04T06:23:18Z,42.805,6.029,13.2976,4.59976,2470.171,2020-10-04T08:24:11Z
2020-10-04T06:26:21Z,42.805,6.029,13.2973,4.59978,2470.18,2020-10-04T08:27:14Z
2020-10-04T06:29:24Z,42.805,6.029,13.2974,4.59979,2470.18,2020-10-04T08:30:17Z
2020-10-04T06:32:27Z,42.805,6.029,13.2970,4.59981,2470.156,2020-10-04T08:33:20Z
2020-10-04T06:35:30Z,42.805,6.029,13.2975,4.59982,2470.194,2020-10-04T08:36:23Z
2020-10-04T06:38:33Z,42.805,6.029,13.2971,4.59980,2470.18,2020-10-04T08:39:26Z
2020-10-04T06:41:36Z,42.805,6.029,13.2974,4.59976,2470.18,2020-10-04T08:42:30Z
2020-10-04T06:44:40Z,42.805,6.029,13.2976,4.59978,2470.156,2020-10-04T08:45:33Z
2020-10-04T06:47:43Z,42.805,6.029,13.2975,4.59977,2470.203,2020-10-04T08:48:36Z
2020-10-04T06:50:46Z,42.805,6.029,13.2975,4.59981,2470.194,2020-10-04T08:51:39Z
2020-10-04T06:53:49Z,42.805,6.029,13.2975,4.59978,2470.18,2020-10-04T08:54:42Z
2020-10-04T06:56:52Z,42.805,6.029,13.2974,4.59976,2470.194,2020-10-04T08:57:45Z
2020-10-04T06:59:55Z,42.805,6.029,13.2974,4.59976,2470.156,2020-10-04T09:00:48Z
2020-10-04T07:02:58Z,42.805,6.029,13.2976,4.59977,2470.217,2020-10-04T09:03:51Z
2020-10-04T07:06:01Z,42.805,6.029,13.2975,4.59976,2470.227,2020-10-04T09:06:54Z
2020-10-04T07:09:04Z,42.805,6.029,13.2972,4.59976,2470.171,2020-10-04T09:09:58Z
2020-10-04T07:12:08Z,42.805,6.029,13.2978,4.59976,2470.203,2020-10-04T09:13:01Z
2020-10-04T07:15:11Z,42.805,6.029,13.2975,4.59976,2470.203,2020-10-04T09:16:04Z
2020-10-04T07:18:14Z,42.805,6.029,13.2974,4.59978,2470.18,2020-10-04T09:19:07Z
2020-10-04T07:21:17Z,42.805,6.029,13.2976,4.59976,2470.203,2020-10-04T09:22:10Z
2020-10-04T07:24:20Z,42.805,6.029,13.2977,4.59976,2470.217,2020-10-04T09:25:13Z
2020-10-04T07:27:23Z,42.805,6.029,13.2974,4.59976,2470.24,2020-10-04T09:28:16Z
2020-10-04T07:30:26Z,42.805,6.029,13.2976,4.59978,2470.217,2020-10-04T09:31:19Z
2020-10-04T07:33:29Z,42.805,6.029,13.2974,4.59977,2470.217,2020-10-04T09:34:23Z
2020-10-04T07:36:33Z,42.805,6.029,13.2974,4.59976,2470.18,2020-10-04T09:37:26Z
2020-10-04T07:39:36Z,42.805,6.029,13.2974,4.59976,2470.18,2020-10-04T09:40:29Z
2020-10-04T07:42:39Z,42.805,6.029,13.2971,4.59985,2470.194,2020-10-04T09:43:32Z
2020-10-04T07:45:42Z,42.805,6.029,13.2976,4.59980,2470.217,2020-10-04T09:46:35Z
2020-10-04T07:48:45Z,42.805,6.029,13.2976,4.59978,2470.194,2020-10-04T09:49:38Z
2020-10-04T07:51:48Z,42.805,6.029,13.2974,4.59978,2470.227,2020-10-04T09:52:41Z
2020-10-04T07:54:51Z,42.805,6.029,13.2978,4.59976,2470.156,2020-10-04T09:55:44Z
2020-10-04T07:57:54Z,42.805,6.029,13.2976,4.59976,2470.217,2020-10-04T09:58:47Z
2020-10-04T08:00:57Z,42.805,6.029,13.2974,4.59979,2470.24,2020-10-04T10:01:51Z
2020-10-04T08:04:01Z,42.805,6.029,13.2976,4.59978,2470.203,2020-10-04T10:04:54Z
2020-10-04T08:07:04Z,42.805,6.029,13.2976,4.59976,2470.217,2020-10-04T10:07:57Z
2020-10-04T08:10:07Z,42.805,6.029,13.2976,4.59977,2470.227,2020-10-04T10:11:00Z
2020-10-04T08:13:10Z,42.805,6.029,13.2978,4.59977,2470.217,2020-10-04T10:14:03Z
2020-10-04T08:16:13Z,42.805,6.029,13.2974,4.59976,2470.227,2020-10-04T10:17:06Z
2020-10-04T08:19:16Z,42.805,6.029,13.2972,4.59976,2470.217,2020-10-04T10:20:09Z
2020-10-04T08:22:19Z,42.805,6.029,13.2973,4.59978,2470.24,2020-10-04T10:23:12Z
2020-10-04T08:25:22Z,42.805,6.029,13.2976,4.59978,2470.18,2020-10-04T10:26:16Z
2020-10-04T08:28:26Z,42.805,6.029,13.2976,4.59976,2470.227,2020-10-04T10:29:19Z
2020-10-04T08:31:29Z,42.805,6.029,13.2973,4.59978,2470.203,2020-10-04T10:32:22Z
2020-10-04T08:34:32Z,42.805,6.029,13.2977,4.59979,2470.227,2020-10-04T10:35:25Z
2020-10-04T08:37:35Z,42.805,6.029,13.2976,4.59976,2470.273,2020-10-04T10:38:28Z
2020-10-04T08:40:38Z,42.805,6.029,13.2972,4.59983,2470.227,2020-10-04T10:41:31Z
2020-10-04T08:43:41Z,42.805,6.029,13.2976,4.59976,2470.24,2020-10-04T10:44:34Z
2020-10-04T08:46:44Z,42.805,6.029,13.2976,4.59977,2470.203,2020-10-04T10:47:37Z
2020-10-04T08:49:47Z,42.805,6.029,13.2974,4.59976,2470.273,2020-10-04T10:50:41Z
2020-10-04T08:52:51Z,42.805,6.029,13.2975,4.59978,2470.227,2020-10-04T10:53:44Z
2020-10-04T08:55:54Z,42.805,6.029,13.2977,4.59977,2470.264,2020-10-04T10:56:47Z
2020-10-04T08:58:57Z,42.805,6.029,13.2974,4.59976,2470.264,2020-10-04T10:59:50Z
2020-10-04T09:02:00Z,42.805,6.029,13.2976,4.59977,2470.24,2020-10-04T11:02:53Z
2020-10-04T09:05:03Z,42.805,6.029,13.2982,4.60003,2470.203,2020-10-04T11:05:56Z
2020-10-04T09:08:06Z,42.805,6.029,13.2982,4.59987,2470.18,2020-10-04T11:08:59Z
2020-10-04T09:11:09Z,42.805,6.029,13.2986,4.59983,2470.25,2020-10-04T11:12:02Z
2020-10-04T09:14:12Z,42.805,6.029,13.2983,4.59995,2470.18,2020-10-04T11:15:06Z
2020-10-04T09:17:16Z,42.805,6.029,13.2985,4.59994,2470.227,2020-10-04T11:18:09Z
2020-10-04T09:20:19Z,42.805,6.029,13.2997,4.59992,2470.203,2020-10-04T11:21:12Z
2020-10-04T09:23:22Z,42.805,6.029,13.2982,4.59980,2470.227,2020-10-04T11:24:15Z
2020-10-04T09:26:25Z,42.805,6.029,13.2986,4.59992,2470.227,2020-10-04T11:27:18Z
2020-10-04T09:29:28Z,42.805,6.029,13.2984,4.59986,2470.227,2020-10-04T11:30:21Z
2020-10-04T09:32:31Z,42.805,6.029,13.2996,4.59982,2470.227,2020-10-04T11:33:24Z
2020-10-04T09:35:34Z,42.805,6.029,13.2993,4.59984,2470.25,2020-10-04T11:36:27Z
2020-10-04T09:38:37Z,42.805,6.029,13.2980,4.60001,2470.227,2020-10-04T11:39:31Z
2020-10-04T09:41:41Z,42.805,6.029,13.2982,4.59991,2470.227,2020-10-04T11:42:34Z
2020-10-04T09:44:44Z,42.805,6.029,13.2991,4.59982,2470.203,2020-10-04T11:45:37Z
2020-10-04T09:47:47Z,42.805,6.029,13.2979,4.59979,2470.217,2020-10-04T11:48:40Z
2020-10-04T09:50:50Z,42.805,6.029,13.2982,4.59978,2470.236,2020-10-04T11:51:43Z
2020-10-04T09:53:53Z,42.805,6.029,13.2976,4.59976,2470.227,2020-10-04T11:54:46Z
2020-10-04T09:56:56Z,42.805,6.029,13.2983,4.59980,2470.203,2020-10-04T11:57:49Z
2020-10-04T09:59:59Z,42.805,6.029,13.2982,4.59978,2470.18,2020-10-04T12:00:52Z
2020-10-04T10:03:02Z,42.805,6.029,13.2985,4.59991,2470.217,2020-10-04T12:03:56Z
2020-10-04T10:06:05Z,42.805,6.029,13.2979,4.59982,2470.203,2020-10-04T12:06:59Z
2020-10-04T10:09:09Z,42.805,6.029,13.3006,4.59993,2470.194,2020-10-04T12:10:02Z
2020-10-04T10:12:12Z,42.805,6.029,13.3004,4.59994,2470.217,2020-10-04T12:13:05Z
2020-10-04T10:15:15Z,42.805,6.029,13.2992,4.60003,2470.227,2020-10-04T12:16:08Z
2020-10-04T10:18:18Z,42.805,6.029,13.2993,4.60014,2470.217,2020-10-04T12:19:11Z
2020-10-04T10:21:21Z,42.805,6.029,13.2992,4.60001,2470.227,2020-10-04T12:22:14Z
2020-10-04T10:24:24Z,42.805,6.029,13.2991,4.60009,2470.217,2020-10-04T12:25:17Z
2020-10-04T10:27:27Z,42.805,6.029,13.2989,4.60026,2470.194,2020-10-04T12:28:20Z
2020-10-04T10:30:30Z,42.805,6.029,13.2999,4.60018,2470.194,2020-10-04T12:31:24Z
2020-10-04T10:33:34Z,42.805,6.029,13.2985,4.60011,2470.194,2020-10-04T12:34:27Z
2020-10-04T10:36:37Z,42.805,6.029,13.2993,4.60021,2470.217,2020-10-04T12:37:30Z
2020-10-04T10:39:40Z,42.805,6.029,13.2996,4.60012,2470.18,2020-10-04T12:40:33Z
2020-10-04T10:42:43Z,42.805,6.029,13.2983,4.60006,2470.18,2020-10-04T12:43:36Z
2020-10-04T10:45:46Z,42.805,6.029,13.2980,4.60006,2470.156,2020-10-04T12:46:39Z
2020-10-04T10:48:49Z,42.805,6.029,13.2998,4.60003,2470.18,2020-10-04T12:49:42Z
2020-10-04T10:51:52Z,42.805,6.029,13.2987,4.60004,2470.194,2020-10-04T12:52:46Z
2020-10-04T10:54:55Z,42.805,6.029,13.2986,4.60003,2470.171,2020-10-04T12:55:49Z
2020-10-04T10:57:59Z,42.805,6.029,13.2984,4.60002,2470.156,2020-10-04T12:58:52Z
2020-10-04T11:01:02Z,42.805,6.029,13.2979,4.60003,2470.133,2020-10-04T13:01:55Z
2020-10-04T11:04:05Z,42.805,6.029,13.2982,4.60000,2470.171,2020-10-04T13:04:58Z
2020-10-04T11:07:08Z,42.805,6.029,13.2986,4.60005,2470.171,2020-10-04T13:08:01Z
2020-10-04T11:10:11Z,42.805,6.029,13.2980,4.60003,2470.171,2020-10-04T13:11:04Z
2020-10-04T11:13:14Z,42.805,6.029,13.2989,4.60001,2470.124,2020-10-04T13:14:07Z
2020-10-04T11:16:17Z,42.805,6.029,13.2986,4.60020,2470.156,2020-10-04T13:17:10Z
2020-10-04T11:19:20Z,42.805,6.029,13.2979,4.60007,2470.133,2020-10-04T13:20:14Z
2020-10-04T11:22:24Z,42.805,6.029,13.2996,4.60009,2470.156,2020-10-04T13:23:17Z
2020-10-04T11:25:27Z,42.805,6.029,13.2982,4.60002,2470.18,2020-10-04T13:26:20Z
2020-10-04T11:28:30Z,42.805,6.029,13.2981,4.60000,2470.156,2020-10-04T13:29:23Z
2020-10-04T11:31:33Z,42.805,6.029,13.2982,4.59999,2470.156,2020-10-04T13:32:26Z
2020-10-04T11:34:36Z,42.805,6.029,13.2986,4.60013,2470.133,2020-10-04T13:35:29Z
2020-10-04T11:37:39Z,42.805,6.029,13.2983,4.60008,2470.18,2020-10-04T13:38:32Z
2020-10-04T11:40:42Z,42.805,6.029,13.2982,4.60009,2470.133,2020-10-04T13:41:35Z
2020-10-04T11:43:45Z,42.805,6.029,13.2986,4.60007,2470.133,2020-10-04T13:44:39Z
2020-10-04T11:46:49Z,42.805,6.029,13.2983,4.60013,2470.11,2020-10-04T13:47:42Z
2020-10-04T11:49:52Z,42.805,6.029,13.2984,4.60010,2470.133,2020-10-04T13:50:45Z
2020-10-04T11:52:55Z,42.805,6.029,13.2988,4.60009,2470.133,2020-10-04T13:53:48Z
2020-10-04T11:55:58Z,42.805,6.029,13.2982,4.60006,2470.11,2020-10-04T13:56:51Z
2020-10-04T11:59:01Z,42.805,6.029,13.2979,4.60003,2470.11,2020-10-04T13:59:54Z
2020-10-04T12:02:04Z,42.805,6.029,13.2985,4.60009,2470.124,2020-10-04T14:02:57Z
2020-10-04T12:05:07Z,42.805,6.029,13.2985,4.59999,2470.124,2020-10-04T14:06:00Z
2020-10-04T12:08:10Z,42.805,6.029,13.2985,4.60001,2470.133,2020-10-04T14:09:04Z
2020-10-04T12:11:14Z,42.805,6.029,13.2979,4.60019,2470.11,2020-10-04T14:12:07Z
2020-10-04T12:14:17Z,42.805,6.029,13.2981,4.59995,2470.11,2020-10-04T14:15:10Z
2020-10-04T12:17:20Z,42.805,6.029,13.2991,4.59999,2470.11,2020-10-04T14:18:13Z
2020-10-04T12:20:23Z,42.805,6.029,13.2983,4.59996,2470.133,2020-10-04T14:21:16Z
2020-10-04T12:23:26Z,42.805,6.029,13.2980,4.59996,2470.124,2020-10-04T14:24:19Z
2020-10-04T12:26:29Z,42.805,6.029,13.2986,4.59996,2470.133,2020-10-04T14:27:22Z
2020-10-04T12:29:32Z,42.805,6.029,13.2991,4.60001,2470.087,2020-10-04T14:30:25Z
2020-10-04T12:32:35Z,42.805,6.029,13.2991,4.60002,2470.124,2020-10-04T14:33:29Z
2020-10-04T12:35:39Z,42.805,6.029,13.2983,4.60002,2470.11,2020-10-04T14:36:32Z
2020-10-04T12:38:42Z,42.805,6.029,13.2985,4.59997,2470.087,2020-10-04T14:39:35Z
2020-10-04T12:41:45Z,42.805,6.029,13.2985,4.60004,2470.124,2020-10-04T14:42:38Z
2020-10-04T12:44:48Z,42.805,6.029,13.2983,4.59997,2470.087,2020-10-04T14:45:41Z
2020-10-04T12:47:51Z,42.805,6.029,13.2985,4.60014,2470.147,2020-10-04T14:48:44Z
2020-10-04T12:50:54Z,42.805,6.029,13.2984,4.60015,2470.087,2020-10-04T14:51:47Z
2020-10-04T12:53:57Z,42.805,6.029,13.2977,4.59988,2470.063,2020-10-04T14:54:50Z
2020-10-04T12:57:00Z,42.805,6.029,13.2978,4.60001,2470.11,2020-10-04T14:57:54Z
2020-10-04T13:00:03Z,42.805,6.029,13.2979,4.59990,2470.11,2020-10-04T15:00:57Z
2020-10-04T13:03:07Z,42.805,6.029,13.2975,4.59991,2470.147,2020-10-04T15:04:00Z
2020-10-04T13:06:10Z,42.805,6.029,13.2983,4.59998,2470.11,2020-10-04T15:07:03Z
2020-10-04T13:09:13Z,42.805,6.029,13.2977,4.59989,2470.124,2020-10-04T15:10:06Z
2020-10-04T13:12:16Z,42.805,6.029,13.2981,4.59990,2470.11,2020-10-04T15:13:09Z
2020-10-04T13:15:19Z,42.805,6.029,13.2979,4.60016,2470.11,2020-10-04T15:16:12Z
2020-10-04T13:18:22Z,42.805,6.029,13.2979,4.59990,2470.087,2020-10-04T15:19:15Z
2020-10-04T13:21:25Z,42.805,6.029,13.2981,4.59989,2470.11,2020-10-04T15:22:18Z
2020-10-04T13:24:28Z,42.805,6.029,13.2976,4.59993,2470.077,2020-10-04T15:25:22Z
2020-10-04T13:27:32Z,42.805,6.029,13.2979,4.59991,2470.124,2020-10-04T15:28:25Z
2020-10-04T13:30:35Z,42.805,6.029,13.2980,4.59991,2470.1,2020-10-04T15:31:28Z
2020-10-04T13:33:38Z,42.805,6.029,13.2998,4.60001,2470.063,2020-10-04T15:34:31Z
2020-10-04T13:36:41Z,42.805,6.029,13.2980,4.59991,2470.087,2020-10-04T15:37:34Z
2020-10-04T13:39:44Z,42.805,6.029,13.2982,4.59997,2470.087,2020-10-04T15:40:37Z
2020-10-04T13:42:47Z,42.805,6.029,13.2986,4.60008,2470.1,2020-10-04T15:43:40Z
2020-10-04T13:45:50Z,42.805,6.029,13.2983,4.59993,2470.1,2020-10-04T15:46:43Z
2020-10-04T13:48:53Z,42.805,6.029,13.2979,4.59989,2470.063,2020-10-04T15:49:47Z
2020-10-04T13:51:57Z,42.805,6.029,13.2977,4.59992,2470.087,2020-10-04T15:52:50Z
2020-10-04T13:55:00Z,42.805,6.029,13.2983,4.60004,2470.087,2020-10-04T15:55:53Z
2020-10-04T13:58:03Z,42.805,6.029,13.2982,4.59986,2470.087,2020-10-04T15:58:56Z
2020-10-04T14:01:06Z,42.805,6.029,13.2982,4.60003,2470.1,2020-10-04T16:01:59Z
2020-10-04T14:04:09Z,42.805,6.029,13.2977,4.59993,2470.087,2020-10-04T16:05:02Z
2020-10-04T14:07:12Z,42.805,6.029,13.2990,4.60004,2470.11,2020-10-04T16:08:05Z
2020-10-04T14:10:15Z,42.805,6.029,13.3003,4.60016,2470.063,2020-10-04T16:11:08Z
2020-10-04T14:13:18Z,42.805,6.029,13.2996,4.60024,2470.087,2020-10-04T16:14:12Z
2020-10-04T14:16:22Z,42.805,6.029,13.2985,4.60026,2470.1,2020-10-04T16:17:15Z
2020-10-04T14:19:25Z,42.805,6.029,13.3000,4.60019,2470.1,2020-10-04T16:20:18Z
2020-10-04T14:22:28Z,42.805,6.029,13.2985,4.60009,2470.063,2020-10-04T16:23:21Z
2020-10-04T14:25:31Z,42.805,6.029,13.2991,4.60023,2470.087,2020-10-04T16:26:24Z
2020-10-04T14:28:34Z,42.805,6.029,13.2999,4.59999,2470.087,2020-10-04T16:29:27Z
2020-10-04T14:31:37Z,42.805,6.029,13.2993,4.60019,2470.077,2020-10-04T16:32:30Z
2020-10-04T14:34:40Z,42.805,6.029,13.2991,4.60022,2470.053,2020-10-04T16:35:33Z
2020-10-04T14:37:43Z,42.805,6.029,13.3004,4.60029,2470.077,2020-10-04T16:38:37Z
2020-10-04T14:40:47Z,42.805,6.029,13.2990,4.60033,2470.087,2020-10-04T16:41:40Z
2020-10-04T14:43:50Z,42.805,6.029,13.2982,4.60013,2470.087,2020-10-04T16:44:43Z
2020-10-04T14:46:53Z,42.805,6.029,13.2986,4.60008,2470.087,2020-10-04T16:47:46Z
2020-10-04T14:49:56Z,42.805,6.029,13.2993,4.60037,2470.04,2020-10-04T16:50:49Z
2020-10-04T14:52:59Z,42.805,6.029,13.2994,4.60032,2470.1,2020-10-04T16:53:52Z
2020-10-04T14:56:02Z,42.805,6.029,13.2995,4.60029,2470.087,2020-10-04T16:56:55Z
2020-10-04T14:59:05Z,42.805,6.029,13.2982,4.60039,2470.04,2020-10-04T16:59:58Z
2020-10-04T15:02:08Z,42.805,6.029,13.2993,4.59990,2470.1,2020-10-04T17:03:02Z